Vertical_Velocity
-1 1 -1 -2 1 1 -2 1 1 2 -1 8 -2 4 -4 -5 0 -15 6 -3 -4 -3 1 0 5 -0 -5 -6 4 2 3 -0 -0 0 0 0 2 -0 -0 -0 -1 -1 0 -0 -1 -4 -2 -4 -3
-0 -2 -1 -6 -2 1 -5 2 -1 7 2 -2 1 12 12 -8 -8 -4 -2 3 -3 -2 1 2 5 1 -1 -3 -1 1 3 1 -0 1 -0 2 2 1 -0 -0 -1 -1 -0 0 -1 -3 -2 -4 -1
-0 0 -2 -2 -2 -2 -1 2 -7 -1 7 6 -8 -4 2 -0 1 2 -7 2 5 -5 -1 2 3 2 -0 6 1 2 0 -1 0 1 -1 1 1 3 1 1 0 -1 1 1 1 -2 -4 -2 1
0 -0 -1 -4 -2 -2 -1 -6 1 -6 -3 7 -5 -2 -3 5 11 -2 -5 1 9 4 2 4 -0 1 0 -3 5 1 2 1 -1 1 0 0 -0 -0 2 0 0 -1 -0 1 2 -2 -5 -2 -0
2 -1 0 -2 -4 -1 3 -4 2 -4 -6 13 5 1 -1 -9 -2 7 7 -0 -1 3 6 1 1 0 -0 -1 3 1 -1 1 2 0 1 2 0 1 -1 0 1 2 1 -0 0 -2 -1 0 -1
0 1 -2 -4 -4 2 -5 4 1 0 9 -4 9 6 3 3 2 -1 1 -1 3 -0 -3 -2 2 4 3 -1 -1 1 1 1 1 1 0 -2 1 0 2 -2 0 1 2 1 -2 -3 -3 -0 2
-3 2 -2 -4 -4 -2 3 1 3 -4 4 -0 -5 -1 0 3 -2 3 -1 3 0 -1 -2 -2 -1 2 2 2 -0 1 1 -1 1 -0 -0 1 -2 1 1 3 -1 -2 -0 1 1 -2 -1 -1 1
0 4 -5 2 2 -14 5 2 9 3 -6 10 7 -1 -4 2 2 -2 -0 2 -0 -0 1 1 4 5 7 3 1 1 1 3 -1 1 -1 -1 0 0 0 2 1 1 -2 -1 -2 -5 2 2 2
4 -3 -1 -0 -1 -1 12 -0 10 2 -8 5 7 7 -5 0 1 1 4 2 3 1 1 2 3 4 7 6 3 1 -1 2 1 -1 -1 0 -0 1 1 0 2 -0 1 2 -2 -3 -2 -3 -2
2 -0 -8 3 3 -4 4 6 -2 -10 4 -0 4 4 2 -0 -3 -8 4 -2 -2 -0 1 3 3 3 2 2 1 2 1 3 5 1 1 -1 -1 -2 -1 0 0 -0 1 -1 -2 -1 1 -0 0
-2 -5 6 -5 2 -5 -6 -2 2 1 -1 1 2 -4 -1 2 -4 -4 -1 1 1 3 -1 1 -2 2 3 1 2 1 0 0 2 2 2 -1 -1 0 1 0 2 1 1 1 1 -1 -2 -1 -1
-2 0 -3 -3 7 -4 -9 -9 -9 6 -9 4 11 6 -1 -1 -1 5 0 0 -3 -1 5 4 1 -4 -2 1 2 1 1 4 2 -0 3 -1 -0 -2 -1 0 -1 2 0 -2 0 -2 2 -1 -0
-1 -2 0 6 -2 1 -0 -8 -7 6 3 4 10 3 5 -1 -3 -2 2 -0 4 -0 -1 5 0 3 0 -0 2 2 3 1 4 2 1 1 1 -0 -2 -2 -2 1 2 -0 -1 -0 1 -0 0
1 2 -1 -3 0 5 1 -3 15 11 10 -8 3 2 -0 -2 -5 1 -1 4 -5 7 1 -1 -2 -1 -1 -0 -1 -3 -4 -0 1 2 7 2 1 -0 2 -1 -1 2 1 -1 -0 -0 0 1 -0
0 -12 -2 8 -5 -11 12 -10 3 -2 7 -8 4 15 6 1 3 -12 -5 -0 5 3 14 -3 1 4 -1 4 5 2 0 2 -3 1 5 6 5 2 3 2 -1 -0 4 -0 -1 -1 -0 1 0
-2 3 -10 4 4 2 11 -16 6 2 -9 -5 0 1 21 5 7 -0 -3 0 5 2 -1 4 1 2 3 1 -1 1 3 4 2 0 -2 6 8 4 6 8 3 1 -0 2 1 -0 -1 1 2
-1 -7 -6 -11 4 -3 15 -0 -6 0 3 -9 -2 4 -7 5 -1 1 2 4 2 6 4 7 6 -2 3 6 8 3 7 5 4 4 4 2 4 1 -2 4 11 0 1 3 2 1 -0 -1 2
4 4 3 -17 5 4 -7 6 -9 -17 6 6 -17 -3 -1 -3 -3 -3 2 -4 -11 -2 13 21 8 2 5 5 0 -3 -4 1 4 2 3 8 4 10 -5 1 -0 4 1 1 2 4 1 1 1
-1 -1 2 -3 -21 -1 2 3 -4 -6 -12 -15 -7 -4 -7 -15 -10 -3 -7 -4 2 -2 -2 -3 -5 16 5 1 -3 0 -7 3 -3 1 12 9 4 -33 0 -0 -5 2 4 7 3 0 2 -2 2
-2 4 -15 -4 -2 6 -13 -13 -7 -2 -3 -2 -6 -7 -7 -3 -10 -8 -1 -4 3 0 3 -1 1 5 -2 10 3 3 6 8 11 7 8 14 4 5 4 10 -1 8 5 5 1 2 5 -1 -0
8 -0 1 1 -8 -4 -2 -44 -17 -2 -3 -4 -8 -6 -3 -1 1 -3 4 -1 -2 -2 -3 0 -7 -6 9 7 4 12 12 -9 -8 1 5 2 4 7 8 -0 -18 -1 7 -2 6 1 2 6 4
2 0 5 3 5 -1 1 -27 17 0 3 -5 -1 -2 2 -0 1 3 -4 -0 2 2 -3 -3 8 7 1 4 -6 2 -2 7 -2 -2 -0 8 8 9 8 10 5 8 4 0 2 11 0 -1 4
-9 -2 -2 -0 1 3 6 9 3 2 3 0 0 -4 -5 -9 -13 -10 -4 -6 3 1 7 4 -4 11 10 11 9 -0 -7 14 4 -3 -6 -4 8 6 8 7 3 -6 2 0 -5 4 5 -0 4
5 1 -1 -2 5 5 11 13 -67 -1 -8 2 -5 -4 -4 1 1 -3 -4 -5 -10 -4 -1 5 8 -1 -6 -2 8 7 11 14 -3 8 9 -2 4 2 4 7 1 -2 5 1 -10 2 3 -4 3
2 1 -4 -1 4 -11 6 11 -29 1 2 2 -0 -4 -2 -1 -3 -1 1 5 1 -6 -4 -4 -3 10 5 8 11 6 5 7 -0 -7 -9 13 -7 -9 -3 10 13 7 3 12 11 7 7 -1 -0
-1 0 -4 -3 -0 -3 -1 -5 -13 -3 -1 1 2 7 4 -5 -6 -7 -5 -4 4 -1 -7 3 1 -3 12 9 10 14 21 9 -22 54 27 19 -7 24 1 -2 3 10 6 6 7 -6 -4 -6 -9
2 -3 2 2 2 3 -6 -7 -3 -1 -2 2 8 4 -5 -3 7 1 2 -2 1 -1 -1 4 -2 -1 -11 -10 40 25 18 42 45 50 27 122 95 64 24 24 16 4 7 6 5 5 5 7 -1
-2 1 1 1 -0 -1 -6 -2 -8 3 2 -1 1 2 6 -9 -6 -3 -5 -4 -2 -0 -4 -5 -11 0 -20 -20 -5 11 12 2 -20 7 -36 17 24 41 9 35 -6 7 4 2 5 6 -2 6 -2
0 -1 -2 1 4 -1 -1 -11 3 -0 -1 -1 -0 3 -10 2 -7 -6 -5 -1 2 -7 2 -9 -6 -8 -19 -1 -4 -15 -25 -18 15 15 -14 -20 7 24 26 21 29 9 5 6 5 9 5 5 5
1 -1 8 10 -7 -1 1 -30 -17 -3 1 -4 -2 6 -20 -7 -5 3 -0 -4 -1 -4 -4 4 0 4 5 3 -6 3 -13 -4 8 -20 -14 -5 8 -5 3 22 22 9 6 8 0 6 11 -0 4
Height
3147 3146 3146 3147 3151 3146 3146 3147 3147 3146 3144 3144 3143 3144 3143 3143 3142 3145 3141 3143 3144 3145 3145 3145 3145 3147 3149 3151 3153 3154 3154 3154 3155 3155 3156 3156 3156 3157 3157 3157 3158 3158 3159 3159 3158 3158 3159 3158 3159
3146 3146 3147 3147 3148 3145 3146 3145 3145 3145 3144 3143 3143 3143 3142 3141 3142 3143 3144 3144 3144 3145 3144 3144 3143 3146 3148 3149 3152 3154 3154 3154 3155 3155 3155 3156 3156 3156 3157 3157 3158 3158 3158 3158 3158 3158 3158 3157 3159
3145 3145 3146 3145 3143 3143 3144 3145 3144 3142 3143 3140 3140 3142 3143 3142 3143 3142 3143 3142 3143 3143 3143 3143 3142 3145 3147 3148 3150 3152 3153 3153 3154 3154 3155 3155 3156 3156 3156 3157 3157 3157 3157 3157 3157 3157 3156 3156 3157
3144 3145 3145 3142 3140 3142 3142 3144 3145 3141 3139 3139 3140 3142 3142 3142 3142 3142 3142 3143 3142 3142 3142 3141 3142 3144 3145 3147 3149 3151 3152 3152 3153 3153 3154 3154 3154 3155 3156 3156 3156 3156 3156 3156 3156 3155 3155 3156 3157
3143 3143 3142 3139 3138 3139 3141 3144 3143 3140 3140 3139 3139 3139 3140 3141 3141 3139 3139 3140 3143 3143 3143 3141 3141 3142 3144 3145 3148 3150 3151 3151 3152 3152 3152 3153 3153 3153 3154 3155 3155 3155 3155 3155 3154 3155 3155 3156 3156
3142 3141 3139 3138 3136 3138 3140 3142 3141 3140 3140 3139 3139 3138 3137 3139 3139 3138 3138 3138 3139 3140 3141 3141 3141 3141 3142 3143 3145 3148 3149 3150 3150 3150 3151 3151 3152 3152 3153 3153 3154 3154 3155 3154 3152 3153 3155 3156 3157
3141 3140 3136 3135 3134 3136 3139 3139 3139 3137 3137 3137 3136 3135 3136 3135 3136 3137 3137 3137 3137 3137 3138 3138 3139 3138 3139 3140 3142 3145 3147 3148 3149 3149 3149 3150 3150 3151 3151 3152 3152 3153 3154 3154 3153 3152 3154 3155 3156
3139 3137 3133 3132 3133 3133 3137 3136 3136 3136 3134 3134 3134 3134 3135 3135 3134 3135 3135 3135 3134 3133 3133 3134 3134 3135 3136 3136 3138 3141 3143 3145 3146 3147 3146 3147 3148 3149 3149 3150 3151 3151 3151 3152 3152 3154 3155 3156 3156
3136 3134 3128 3131 3133 3131 3134 3132 3132 3131 3130 3132 3132 3133 3133 3132 3131 3131 3131 3131 3131 3130 3130 3130 3129 3130 3133 3134 3135 3138 3140 3142 3144 3145 3144 3145 3146 3146 3148 3148 3149 3150 3151 3150 3150 3152 3154 3155 3155
3132 3129 3127 3130 3131 3127 3126 3128 3128 3128 3128 3129 3129 3128 3129 3129 3128 3129 3127 3127 3128 3128 3128 3127 3126 3127 3130 3131 3133 3135 3137 3138 3140 3142 3142 3142 3143 3144 3144 3145 3146 3147 3148 3149 3148 3150 3152 3152 3152
3128 3125 3128 3127 3127 3125 3122 3121 3122 3123 3123 3127 3126 3125 3124 3124 3124 3124 3124 3124 3123 3124 3124 3124 3125 3125 3127 3128 3130 3131 3133 3134 3137 3138 3139 3139 3139 3141 3142 3143 3144 3145 3145 3146 3146 3148 3150 3150 3150
3123 3122 3123 3122 3123 3121 3119 3118 3117 3118 3120 3124 3123 3121 3120 3118 3117 3118 3118 3120 3120 3121 3121 3121 3120 3122 3124 3125 3126 3128 3129 3130 3132 3134 3136 3137 3137 3138 3139 3140 3140 3142 3143 3143 3144 3145 3147 3147 3148
3118 3118 3119 3118 3117 3117 3116 3114 3114 3111 3117 3119 3118 3116 3114 3113 3111 3111 3111 3113 3114 3116 3117 3117 3118 3118 3119 3121 3123 3124 3124 3125 3127 3128 3131 3133 3133 3134 3134 3136 3137 3138 3139 3140 3141 3142 3144 3144 3145
3114 3113 3113 3112 3112 3113 3112 3111 3110 3110 3114 3113 3112 3110 3107 3105 3106 3106 3103 3104 3107 3109 3111 3113 3113 3115 3116 3117 3117 3118 3119 3120 3120 3122 3124 3127 3129 3128 3129 3131 3132 3133 3135 3136 3137 3138 3140 3141 3141
3110 3108 3107 3108 3109 3107 3107 3103 3104 3108 3108 3105 3104 3103 3102 3100 3099 3098 3099 3098 3100 3102 3104 3105 3107 3107 3108 3108 3109 3109 3110 3111 3114 3115 3116 3120 3122 3123 3124 3125 3126 3128 3130 3131 3132 3134 3136 3137 3137
3106 3105 3103 3102 3105 3104 3101 3094 3102 3104 3101 3099 3097 3095 3095 3094 3092 3092 3093 3093 3093 3094 3097 3098 3099 3101 3101 3102 3102 3102 3102 3103 3105 3107 3109 3111 3114 3116 3117 3119 3120 3122 3124 3125 3127 3128 3131 3132 3133
3100 3099 3100 3098 3099 3097 3095 3090 3095 3098 3095 3093 3090 3088 3086 3083 3083 3084 3085 3086 3087 3088 3089 3090 3091 3093 3094 3094 3095 3095 3094 3094 3097 3099 3101 3103 3106 3108 3110 3112 3115 3116 3117 3119 3121 3122 3124 3126 3127
3097 3097 3098 3096 3093 3091 3086 3087 3092 3092 3090 3088 3085 3083 3081 3079 3076 3077 3077 3078 3078 3077 3079 3082 3084 3085 3086 3087 3088 3088 3087 3088 3087 3089 3091 3094 3098 3099 3105 3106 3108 3109 3110 3112 3113 3115 3117 3120 3121
3094 3093 3093 3092 3093 3084 3080 3078 3084 3085 3084 3081 3078 3077 3077 3076 3074 3072 3070 3070 3070 3072 3074 3076 3075 3078 3077 3078 3079 3080 3081 3079 3079 3080 3082 3085 3085 3089 3096 3093 3099 3100 3102 3105 3108 3108 3109 3112 3113
3088 3086 3085 3086 3089 3087 3080 3062 3075 3078 3074 3071 3068 3069 3069 3069 3068 3065 3065 3066 3065 3067 3068 3068 3068 3067 3068 3070 3072 3069 3071 3071 3071 3069 3070 3074 3076 3078 3082 3084 3090 3091 3095 3097 3099 3100 3102 3104 3105
3082 3082 3081 3083 3084 3083 3079 3053 3068 3068 3067 3064 3064 3062 3059 3059 3059 3058 3057 3058 3058 3058 3060 3061 3061 3059 3058 3059 3061 3060 3060 3062 3063 3062 3060 3060 3063 3066 3070 3073 3078 3083 3086 3089 3091 3093 3094 3097 3097
3075 3079 3078 3080 3080 3079 3080 3062 3066 3064 3059 3058 3056 3056 3056 3055 3055 3053 3052 3049 3048 3046 3046 3050 3051 3049 3047 3046 3046 3048 3049 3051 3055 3053 3051 3049 3051 3055 3058 3062 3063 3067 3074 3077 3081 3084 3086 3088 3089
3071 3074 3074 3074 3074 3075 3073 3076 3052 3055 3054 3054 3053 3052 3052 3053 3052 3049 3045 3043 3039 3038 3036 3037 3040 3039 3037 3034 3031 3035 3039 3042 3041 3041 3040 3038 3039 3041 3045 3048 3052 3056 3059 3064 3069 3072 3075 3078 3080
3069 3069 3069 3069 3069 3068 3058 3065 3041 3049 3049 3046 3046 3045 3045 3044 3042 3040 3037 3034 3033 3029 3026 3024 3025 3023 3022 3023 3023 3021 3027 3027 3025 3026 3026 3026 3027 3028 3032 3036 3040 3044 3046 3052 3057 3061 3063 3066 3070
3064 3066 3067 3066 3064 3055 3053 3055 3041 3039 3038 3038 3037 3036 3037 3036 3034 3033 3031 3028 3024 3023 3020 3019 3016 3016 3013 3012 3013 3013 3013 3013 3009 3009 3007 3011 3011 3013 3017 3022 3025 3029 3034 3036 3043 3046 3049 3053 3057
3060 3063 3064 3062 3055 3051 3050 3041 3036 3035 3034 3033 3033 3032 3029 3027 3030 3028 3025 3022 3018 3013 3011 3009 3007 3006 3004 3005 3000 3002 3002 2999 2994 2973 2984 2994 3002 3001 3003 3006 3011 3015 3020 3023 3027 3029 3036 3039 3042
3056 3057 3059 3057 3053 3052 3041 3036 3036 3032 3031 3031 3030 3028 3027 3026 3025 3022 3017 3015 3012 3008 3004 3002 3002 2998 2996 2994 2981 2988 2987 2987 2982 2985 2986 2980 2985 2978 2989 2992 2998 3003 3007 3011 3014 3019 3021 3026 3028
3051 3054 3054 3054 3053 3045 3035 3032 3029 3028 3028 3027 3026 3025 3022 3018 3017 3016 3014 3011 3008 3005 3000 2997 2994 2991 2988 2988 2982 2971 2972 2973 2975 2978 2977 2974 2980 2976 2976 2983 2991 2993 2997 3001 3004 3007 3009 3013 3016
3046 3045 3047 3048 3044 3039 3032 3029 3024 3023 3023 3022 3021 3018 3014 3013 3010 3009 3007 3007 3003 3000 2997 2994 2990 2988 2986 2984 2978 2976 2970 2972 2974 2970 2969 2970 2971 2972 2971 2977 2981 2984 2988 2991 2994 2998 3000 3004 3003
3040 3038 3040 3040 3036 3032 3029 3021 3019 3021 3018 3018 3017 3011 3010 3009 3006 3005 3002 3000 2997 2994 2993 2990 2988 2984 2983 2978 2973 2973 2971 2971 2966 2962 2965 2971 2964 2965 2969 2972 2973 2977 2980 2981 2984 2987 2988 2993 2995